Orbital Elements at Epoch 2459000.5 (2020-May-31.0) TDB
Reference: JPL 24 (heliocentric ecliptic J2000)
Element | Value | Uncertainty (1-sigma) | Units |
e | .1397176278821729 | 3.5658e-08 | |
a | 2.865916169932535 | 1.194e-08 | au |
q | 2.465497160960399 | 1.0433e-07 | au |
i | 10.0499986088069 | 4.0395e-06 | deg |
node | 315.3184694452523 | 2.2247e-05 | deg |
peri | 86.81355599444016 | 2.8067e-05 | deg |
M | 331.4563981677418 | 1.5208e-05 | deg |
tp | 2459141.007635335509 (2020-Oct-18.50763534) | 7.4809e-05 | TDB |
period | 1772.122138545875 4.85 | 1.1075e-05 3.032e-08 | d yr |
n | .2031462686287527 | 1.2696e-09 | deg/d |
Q | 3.266335178904672 | 1.3609e-08 | au |
|
| | Orbit Determination Parameters
Additional Information
|